Location: Bismarck
(46.7731°N, 100.8200°W)
Time: 18:44:17
(UTC-06:00)

Amateur Radio Satellites - All Passes

Search period start: 30 January 2015 18:14
Search period end: 31 January 2015 18:14
Location: Bismarck, 46.7731°N, 100.8200°W

Satellite Date Start Highest point End Downlink Frequencies (MHz)
Time Altitude Azimuth
Cubesat XI-IV 30 Jan 18:19:19 18:24:38 71° 257° (WSW) 18:30:00 437.490
YUBILEINY 30 Jan 18:20:50 18:25:48 18° 76° (ENE) 18:31:12 435.215
STRAND 1 30 Jan 18:21:21 18:23:38 13° 86° (E) 18:26:11 437.568
BRITE-PL 30 Jan 18:35:54 18:37:14 11° 53° (NE) 18:38:51 437.365/2234.400
CUTE-I 30 Jan 18:39:06 18:44:16 49° 261° (W) 18:49:28 437.470
PRISM 30 Jan 18:39:17 18:43:00 31° 96° (E) 18:46:45 437.425
MOZHAYETS 4 30 Jan 18:55:34 18:59:10 23° 295° (WNW) 19:02:42
CUBESAT XI-V 30 Jan 19:14:22 19:19:00 56° 99° (E) 19:23:39 437.345
CANX-2 30 Jan 19:16:43 19:18:49 14° 61° (ENE) 19:21:04 2200.000
HO-68 30 Jan 19:25:35 19:31:52 36° 60° (ENE) 19:38:16 435.675
SO-50 30 Jan 19:32:17 19:37:08 58° 238° (WSW) 19:41:59 436.795
CUTE 1.7 + AOD 2 30 Jan 19:39:27 19:42:35 21° 65° (ENE) 19:45:49 437.475
CINEMA 3 30 Jan 19:40:35 19:42:24 12° 57° (ENE) 19:44:27 145.822/145.860
GOMX 1 30 Jan 19:57:19 20:02:00 36° 67° (ENE) 20:06:57 467.674
STRAND 1 30 Jan 19:58:28 20:03:39 87° 287° (WNW) 20:08:49 437.568
DOVE 4 30 Jan 20:02:23 20:06:48 30° 65° (ENE) 20:11:24 437.250
SEEDS 30 Jan 20:07:06 20:10:52 32° 69° (ENE) 20:14:41 437.485
BRITE-PL 30 Jan 20:09:34 20:14:38 60° 72° (ENE) 20:20:08 437.365/2234.400
YUBILEINY 30 Jan 20:12:40 20:21:19 79° 96° (E) 20:30:05 435.215
PRISM 30 Jan 20:14:57 20:18:28 27° 294° (WNW) 20:21:56 437.425
UKube-1 30 Jan 20:24:04 20:26:03 13° 59° (ENE) 20:28:13 .
COMPASS 1 30 Jan 20:31:00 20:35:03 47° 72° (ENE) 20:39:07 437.405
CUBEBUG 2 30 Jan 20:39:41 20:43:22 23° 64° (ENE) 20:47:10 437.445
ZACube-1 30 Jan 20:40:59 20:43:55 17° 62° (ENE) 20:46:58 437.345
DELFI C3 30 Jan 20:42:54 20:46:06 23° 67° (ENE) 20:49:23 145.870
DX 1 30 Jan 20:45:21 20:48:37 21° 64° (ENE) 20:51:59 434.975-435.025
CANX-2 30 Jan 20:49:59 20:54:16 73° 258° (WSW) 20:58:35 2200.000
FUNcube-1 30 Jan 20:51:50 20:55:14 21° 64° (ENE) 20:58:43 145.935
CUBESAT XI-V 30 Jan 20:52:42 20:56:07 20° 297° (WNW) 20:59:25 437.345
AAUSAT CUBESAT 2 30 Jan 20:55:52 21:00:04 76° 75° (ENE) 21:04:17 437.432
HO-68 30 Jan 21:12:25 21:19:24 54° 259° (W) 21:26:24 435.675
CINEMA 3 30 Jan 21:13:50 21:18:48 74° 75° (ENE) 21:23:53 145.822/145.860
CUTE 1.7 + AOD 2 30 Jan 21:14:09 21:18:17 44° 262° (W) 21:22:24 437.475
UWE-3 30 Jan 21:15:25 21:19:48 40° 69° (ENE) 21:24:13 435.000/436.395/437.385
AISAT 30 Jan 21:17:55 21:21:01 19° 62° (ENE) 21:24:14 437.250
Oscar 11 30 Jan 21:21:03 21:25:23 71° 74° (ENE) 21:29:43 145.826/435.025
50 SAT 30 Jan 21:27:44 21:30:36 19° 64° (ENE) 21:33:36 437.505
ESTCUBE 1 30 Jan 21:28:02 21:29:22 11° 58° (ENE) 21:30:54 437.505/2401.250
GOMX 1 30 Jan 21:35:20 21:40:06 36° 266° (W) 21:45:05 467.674
STRAND 1 30 Jan 21:39:20 21:42:11 15° 303° (WNW) 21:44:51 437.568
DOVE 4 30 Jan 21:39:31 21:44:23 43° 264° (W) 21:49:26 437.250
SEEDS 30 Jan 21:43:07 21:46:46 26° 266° (W) 21:50:21 437.485
VELOX 1 30 Jan 21:44:19 21:48:13 31° 67° (ENE) 21:52:12 145.980
ISS 30 Jan 21:48:49 21:51:35 26° 141° (SE) 21:54:24 145.825
CUBEBUG 1 30 Jan 21:49:03 21:51:40 16° 61° (ENE) 21:54:26 437.445
BRITE-PL 30 Jan 21:49:41 21:53:41 21° 273° (W) 21:57:44 437.365/2234.400
UKube-1 30 Jan 21:57:20 22:01:40 80° 256° (WSW) 22:06:03 .
HUMSAT D 30 Jan 22:05:14 22:09:31 59° 73° (ENE) 22:13:50 437.325/437.525
COMPASS 1 30 Jan 22:08:05 22:11:04 18° 270° (W) 22:13:56 437.405
AIST 1 30 Jan 22:11:29 22:15:29 35° 73° (ENE) 22:19:32
YUBILEINY 30 Jan 22:12:09 22:19:18 27° 300° (WNW) 22:26:16 435.215
CUBEBUG 2 30 Jan 22:15:11 22:19:49 49° 262° (W) 22:24:28 437.445
ZACube-1 30 Jan 22:15:16 22:19:51 65° 259° (W) 22:24:28 437.345
DELFI C3 30 Jan 22:17:27 22:21:13 34° 264° (W) 22:24:58 145.870
UNISAT 6 30 Jan 22:20:23 22:22:58 15° 88° (E) 22:25:41 437.425
DX 1 30 Jan 22:20:27 22:24:38 44° 261° (W) 22:28:51 434.975-435.025
FUNcube-1 30 Jan 22:26:47 22:31:17 51° 261° (W) 22:35:47 145.935
AAUSAT CUBESAT 2 30 Jan 22:34:57 22:36:22 11° 274° (W) 22:37:32 437.432
UWE-3 30 Jan 22:52:33 22:56:30 26° 268° (W) 23:00:23 435.000/436.395/437.385
NANOSAT C BR1 30 Jan 22:52:40 22:55:46 20° 91° (E) 22:58:58 145.865
AISAT 30 Jan 22:52:56 22:57:18 54° 260° (W) 23:01:44 437.250
CINEMA 3 30 Jan 22:53:32 22:56:39 16° 274° (W) 22:59:35 145.822/145.860
ANTELSAT 30 Jan 22:55:29 22:59:33 34° 96° (E) 23:03:33 437.575/2403.000
Oscar 11 30 Jan 23:00:07 23:02:09 13° 273° (W) 23:03:59 145.826/435.025
ESTCUBE 1 30 Jan 23:01:06 23:05:35 83° 75° (ENE) 23:10:07 437.505/2401.250
50 SAT 30 Jan 23:01:27 23:05:27 46° 261° (W) 23:09:27 437.505
TIGRISAT 30 Jan 23:02:08 23:06:19 39° 97° (E) 23:10:25 435.000
SPROUT 30 Jan 23:02:47 23:06:06 22° 65° (ENE) 23:09:32 437.525
QB50P2 30 Jan 23:07:35 23:11:18 28° 94° (E) 23:15:02 145.880/145.840
QB50P1 30 Jan 23:16:10 23:20:05 33° 96° (E) 23:24:00 145.935-145.965
BUGSAT 1 30 Jan 23:18:53 23:22:35 28° 94° (E) 23:26:20 437.445
VELOX 1 30 Jan 23:20:54 23:24:50 30° 265° (W) 23:28:44 145.980
CUBEBUG 1 30 Jan 23:23:18 23:27:37 64° 259° (W) 23:32:00 437.445
ISS 30 Jan 23:24:37 23:27:53 63° 338° (NNW) 23:31:10 145.825
POLYITAN 1 30 Jan 23:31:58 23:36:12 49° 100° (E) 23:40:23 437.675
TISAT 1 30 Jan 23:33:04 23:37:04 42° 70° (ENE) 23:41:08 437.305
HUMSAT D 30 Jan 23:43:04 23:45:45 15° 271° (W) 23:48:18 437.325/437.525
AIST 1 30 Jan 23:49:31 23:53:01 23° 271° (W) 23:56:27
POPSAT HIP 1 30 Jan 23:50:59 23:55:20 77° 103° (ESE) 23:59:37 437.405
DUCHIFAT 1 30 Jan 23:52:34 23:56:54 80° 102° (ESE) 00:01:12 145.980
UNISAT 6 30 Jan 23:55:51 00:00:17 59° 288° (WNW) 00:04:34 437.425
GONETS M04 31 Jan 00:22:04 00:28:21 24° 80° (E) 00:34:57
NANOSAT C BR1 31 Jan 00:27:47 00:31:55 45° 290° (WNW) 00:36:00 145.865
ANTELSAT 31 Jan 00:32:29 00:36:17 27° 294° (WNW) 00:39:56 437.575/2403.000
SPROUT 31 Jan 00:37:54 00:42:00 41° 262° (W) 00:46:08 437.525
TIGRISAT 31 Jan 00:39:17 00:42:55 24° 295° (WNW) 00:46:25 435.000
ESTCUBE 1 31 Jan 00:41:37 00:43:12 11° 274° (W) 00:44:31 437.505/2401.250
QB50P2 31 Jan 00:43:24 00:47:15 31° 292° (WNW) 00:51:02 145.880/145.840
SWISSCUBE 31 Jan 00:46:31 00:51:03 45° 69° (ENE) 00:55:37 437.505
O/OREOS (USA 219) 31 Jan 00:47:56 00:51:15 20° 48° (NE) 00:54:41 437.305
QB50P1 31 Jan 00:52:14 00:55:53 27° 294° (WNW) 00:59:28 145.935-145.965
BUGSAT 1 31 Jan 00:54:18 00:58:07 31° 292° (WNW) 01:01:53 437.445
KKS-1 31 Jan 00:56:05 00:57:55 13° 58° (ENE) 00:59:56 437.445
ISS 31 Jan 01:01:41 01:04:44 33° 358° (N) 01:07:47 145.825
BEESAT 31 Jan 01:01:48 01:06:28 59° 71° (ENE) 01:11:10 436.000
ITUPSAT 1 31 Jan 01:06:48 01:11:31 64° 72° (ENE) 01:16:16 437.325
POLYITAN 1 31 Jan 01:08:42 01:11:50 19° 297° (WNW) 01:14:51 437.675
TISAT 1 31 Jan 01:09:54 01:13:08 20° 269° (W) 01:16:18 437.305
POPSAT HIP 1 31 Jan 01:28:32 01:30:42 13° 300° (WNW) 01:32:42 437.405
DUCHIFAT 1 31 Jan 01:30:10 01:32:14 13° 300° (WNW) 01:34:07 145.980
Gurwin Techsat 1B 31 Jan 02:05:23 02:08:12 15° 86° (E) 02:11:16 435.225
BEESAT 2 31 Jan 02:09:24 02:12:58 29° 117° (ESE) 02:16:38 435.950
Oscar 19 31 Jan 02:15:09 02:20:18 65° 102° (ESE) 02:25:24 437.125/150
GONETS M04 31 Jan 02:15:30 02:24:18 82° 279° (W) 02:33:05
AIST 2 31 Jan 02:16:13 02:18:46 16° 112° (ESE) 02:21:29 435.215
STARS 31 Jan 02:19:03 02:23:20 49° 71° (ENE) 02:27:41 437.465
M-CUBED/EXP-1 PRIME 31 Jan 02:19:18 02:22:49 34° 65° (ENE) 02:26:08 437.505
BEESAT 3 31 Jan 02:21:11 02:25:04 43° 120° (ESE) 02:29:02 437.485
SWISSCUBE 31 Jan 02:25:23 02:29:11 23° 268° (W) 02:32:54 437.505
O/OREOS (USA 219) 31 Jan 02:26:35 02:31:09 62° 248° (WSW) 02:35:41 437.305
KKS-1 31 Jan 02:29:27 02:33:57 89° 253° (WSW) 02:38:30 437.445
ITAMSAT 1 31 Jan 02:35:33 02:40:22 37° 96° (E) 02:45:14 435.822/435.867
ISS 31 Jan 02:38:23 02:41:38 52° 18° (NNE) 02:44:53 145.825
BEESAT 31 Jan 02:41:28 02:44:46 18° 270° (W) 02:47:56 436.000
CUSAT 1 31 Jan 02:41:38 02:45:31 15° 78° (ENE) 02:49:52 437.405
ITUPSAT 1 31 Jan 02:46:52 02:49:56 16° 271° (W) 02:52:51 437.325
AUBIESAT-1 31 Jan 02:50:34 02:54:25 69° 70° (ENE) 02:58:00 437.475
PCSat 31 Jan 03:10:14 03:11:37 11° 103° (ESE) 03:13:21 145.827
AO-7 31 Jan 03:19:36 03:24:12 16° 84° (E) 03:29:15 29.400- 29.500
Gurwin Techsat 1B 31 Jan 03:43:37 03:48:58 82° 287° (WNW) 03:54:18 435.225
BEESAT 2 31 Jan 03:47:14 03:51:07 36° 316° (NW) 03:55:02 435.950
AIST 2 31 Jan 03:52:42 03:56:57 67° 309° (NW) 04:01:16 435.215
M-CUBED/EXP-1 PRIME 31 Jan 03:54:53 03:57:55 21° 260° (W) 04:00:43 437.505
Oscar 19 31 Jan 03:55:28 03:59:13 20° 300° (WNW) 04:02:49 437.125/150
STARS 31 Jan 03:56:53 04:00:09 19° 269° (W) 04:03:18 437.465
BEESAT 3 31 Jan 03:59:47 04:03:22 27° 320° (NW) 04:06:59 437.485
DANDE 31 Jan 04:00:58 04:08:44 44° 90° (E) 04:16:42 436.750
HORYU 2 31 Jan 04:08:35 04:13:01 62° 101° (ESE) 04:17:24 437.375
KKS-1 31 Jan 04:10:38 04:11:23 10° 275° (W) 04:11:53 437.445
ISS 31 Jan 04:15:00 04:18:03 34° 217° (SW) 04:21:05 145.825
ITAMSAT 1 31 Jan 04:15:10 04:19:51 34° 295° (WNW) 04:24:29 435.822/435.867
GONETS M04 31 Jan 04:16:27 04:22:49 21° 305° (NW) 04:28:51
RS-15 31 Jan 04:17:23 04:26:39 35° 108° (ESE) 04:36:14 29.354- 29.394
CUSAT 1 31 Jan 04:19:08 04:27:20 62° 95° (E) 04:35:26 437.405
MOZHAYETS 4 31 Jan 04:22:27 04:26:57 59° 73° (ENE) 04:31:29
YUBILEINY 31 Jan 04:25:57 04:27:43 11° 43° (NE) 04:30:03 435.215
JAS-2 31 Jan 04:27:20 04:31:44 23° 92° (E) 04:36:41 435.910
AUBIESAT-1 31 Jan 04:29:01 04:29:45 10° 265° (W) 04:30:16 437.475
CUBESAT XI-V 31 Jan 04:47:31 04:48:28 11° 57° (ENE) 04:49:39 437.345
PCSat 31 Jan 04:48:49 04:54:13 73° 121° (ESE) 04:59:40 145.827
AO-7 31 Jan 05:10:16 05:18:39 75° 106° (ESE) 05:26:58 29.400- 29.500
Gurwin Techsat 1B 31 Jan 05:25:22 05:28:13 14° 304° (NW) 05:30:52 435.225
BEESAT 2 31 Jan 05:29:49 05:30:33 10° 338° (NNW) 05:31:11 435.950
PRISM 31 Jan 05:32:43 05:36:26 35° 69° (ENE) 05:40:13 437.425
AIST 2 31 Jan 05:33:50 05:36:25 15° 331° (NNW) 05:38:56 435.215
STRAND 1 31 Jan 05:39:20 05:43:32 27° 63° (ENE) 05:47:50 437.568
DANDE 31 Jan 05:43:50 05:52:09 54° 289° (WNW) 06:00:26 436.750
HORYU 2 31 Jan 05:46:21 05:49:16 17° 299° (WNW) 05:52:03 437.375
MOZHAYETS 4 31 Jan 06:01:37 06:04:39 17° 271° (W) 06:07:31
CUSAT 1 31 Jan 06:03:05 06:10:50 38° 294° (WNW) 06:18:14 437.405
JAS-2 31 Jan 06:11:41 06:17:16 62° 288° (WNW) 06:23:30 435.910
YUBILEINY 31 Jan 06:19:15 06:27:37 46° 70° (ENE) 06:36:03 435.215
CUBESAT XI-V 31 Jan 06:20:36 06:25:11 75° 75° (ENE) 06:29:50 437.345
RS-15 31 Jan 06:27:17 06:38:13 75° 311° (NW) 06:49:22 29.354- 29.394
PCSat 31 Jan 06:33:44 06:38:13 25° 321° (NW) 06:42:39 145.827
Cubesat XI-IV 31 Jan 06:33:49 06:38:47 37° 96° (E) 06:43:46 437.490
CUTE-I 31 Jan 06:53:02 06:58:18 53° 100° (E) 07:03:34 437.470
AO-7 31 Jan 07:03:47 07:10:51 31° 307° (NW) 07:17:44 29.400- 29.500
PRISM 31 Jan 07:08:45 07:12:05 23° 266° (W) 07:15:21 437.425
STRAND 1 31 Jan 07:17:39 07:22:33 46° 262° (W) 07:27:28 437.568
DANDE 31 Jan 07:32:54 07:37:45 15° 311° (NW) 07:42:06 436.750
JAS-2 31 Jan 07:59:42 08:01:35 11° 306° (NW) 08:03:14 435.910
CUBESAT XI-V 31 Jan 08:01:00 08:03:18 13° 274° (W) 08:05:23 437.345
BRITE-PL 31 Jan 08:12:42 08:16:31 19° 86° (E) 08:20:25 437.365/2234.400
Cubesat XI-IV 31 Jan 08:14:01 08:18:53 35° 295° (WNW) 08:23:41 437.490
YUBILEINY 31 Jan 08:16:17 08:24:31 45° 272° (W) 08:32:39 435.215
CUTE-I 31 Jan 08:33:43 08:38:06 26° 298° (WNW) 08:42:24 437.470
CANX-2 31 Jan 08:33:52 08:36:25 16° 89° (E) 08:39:06 2200.000
HO-68 31 Jan 08:37:12 08:42:58 26° 91° (E) 08:48:52 435.675
RS-15 31 Jan 08:42:57 08:52:46 35° 342° (NNW) 09:02:46 29.354- 29.394
VERMONT LUNAR 31 Jan 08:46:31 08:48:53 17° 161° (SSE) 08:51:18 437.305
BEESAT 2 31 Jan 08:49:17 08:50:59 12° 26° (NNE) 08:52:46 435.950
CUTE 1.7 + AOD 2 31 Jan 08:57:01 09:00:30 25° 93° (E) 09:04:01 437.475
BEESAT 3 31 Jan 09:00:46 09:03:08 15° 30° (NNE) 09:05:34 437.485
CINEMA 3 31 Jan 09:07:56 09:10:38 15° 86° (E) 09:13:27 145.822/145.860
Oscar 11 31 Jan 09:08:24 09:09:07 10° 85° (E) 09:10:06 145.826/435.025
POPSAT HIP 1 31 Jan 09:14:33 09:15:35 11° 58° (ENE) 09:16:50 437.405
DUCHIFAT 1 31 Jan 09:15:47 09:16:54 11° 58° (ENE) 09:18:13 145.980
UNISAT 6 31 Jan 09:21:53 09:25:29 23° 64° (ENE) 09:29:08 437.425
SEEDS 31 Jan 09:24:14 09:28:13 40° 97° (E) 09:32:11 437.485
GOMX 1 31 Jan 09:34:05 09:39:31 64° 100° (E) 09:44:39 467.674
DOVE 4 31 Jan 09:36:00 09:41:04 48° 98° (E) 09:45:52 437.250
UKube-1 31 Jan 09:43:45 09:46:00 14° 88° (E) 09:48:27 .
COMPASS 1 31 Jan 09:47:28 09:51:36 61° 100° (E) 09:55:43 437.405
NANOSAT C BR1 31 Jan 09:48:24 09:51:43 23° 65° (ENE) 09:55:07 145.865
BRITE-PL 31 Jan 09:50:00 09:55:42 73° 287° (WNW) 10:01:08 437.365/2234.400
SO-50 31 Jan 09:50:21 09:53:57 24° 114° (ESE) 09:57:44 436.795
DELFI C3 31 Jan 09:54:55 09:58:18 25° 94° (E) 10:01:43 145.870
ANTELSAT 31 Jan 09:57:00 10:01:29 45° 70° (ENE) 10:05:58 437.575/2403.000
PHONESAT 2.4 31 Jan 09:57:56 10:00:53 24° 167° (SSE) 10:03:52 2401.200-2431.200
ZACube-1 31 Jan 10:02:18 10:05:33 20° 90° (E) 10:08:50 437.345
TIGRISAT 31 Jan 10:03:18 10:07:52 51° 71° (ENE) 10:12:25 435.000
QB50P2 31 Jan 10:03:30 10:07:16 31° 68° (ENE) 10:11:08 145.880/145.840
CUBEBUG 2 31 Jan 10:04:08 10:08:09 30° 94° (E) 10:12:05 437.445
DX 1 31 Jan 10:06:16 10:09:53 25° 94° (E) 10:13:33 434.975-435.025
CANX-2 31 Jan 10:08:37 10:12:46 53° 287° (WNW) 10:16:51 2200.000
QB50P1 31 Jan 10:11:50 10:15:46 37° 69° (ENE) 10:19:46 145.935-145.965
AAUSAT CUBESAT 2 31 Jan 10:12:02 10:16:13 84° 285° (WNW) 10:20:22 437.432
BUGSAT 1 31 Jan 10:12:06 10:15:39 29° 67° (ENE) 10:19:19 437.445
FUNcube-1 31 Jan 10:13:12 10:16:52 25° 93° (E) 10:20:30 145.935
VERMONT LUNAR 31 Jan 10:23:23 10:26:26 29° 177° (S) 10:29:31 437.305
HO-68 31 Jan 10:24:14 10:31:21 69° 291° (WNW) 10:38:26 435.675
BEESAT 2 31 Jan 10:26:08 10:30:14 49° 48° (NE) 10:34:17 435.950
GONETS M04 31 Jan 10:27:25 10:31:29 14° 48° (NE) 10:36:02
POLYITAN 1 31 Jan 10:27:51 10:32:04 55° 72° (ENE) 10:36:20 437.675
CUTE 1.7 + AOD 2 31 Jan 10:32:41 10:36:31 33° 291° (WNW) 10:40:18 437.475
AIST 2 31 Jan 10:33:50 10:37:40 30° 41° (NE) 10:41:28 435.215
BEESAT 3 31 Jan 10:37:54 10:42:04 69° 50° (NE) 10:46:11 437.485
50 SAT 31 Jan 10:38:46 10:41:40 19° 91° (E) 10:44:37 437.505
UWE-3 31 Jan 10:39:07 10:43:35 57° 100° (E) 10:47:52 435.000/436.395/437.385
AISAT 31 Jan 10:41:33 10:45:12 24° 93° (E) 10:48:53 437.250
Oscar 11 31 Jan 10:41:41 10:46:01 83° 287° (WNW) 10:50:19 145.826/435.025
CINEMA 3 31 Jan 10:43:38 10:48:29 69° 286° (WNW) 10:53:05 145.822/145.860
AIST 1 31 Jan 10:45:20 10:48:09 18° 87° (E) 10:51:06
POPSAT HIP 1 31 Jan 10:46:32 10:50:50 84° 78° (ENE) 10:55:11 437.405
DUCHIFAT 1 31 Jan 10:47:50 10:52:07 86° 79° (E) 10:56:27 145.980
ESTCUBE 1 31 Jan 10:52:31 10:54:54 14° 88° (E) 10:57:30 437.505/2401.250
UNISAT 6 31 Jan 10:57:26 11:02:01 49° 261° (W) 11:06:34 437.425
RS-15 31 Jan 10:59:20 11:09:05 34° 15° (NNE) 11:19:17 29.354- 29.394
SEEDS 31 Jan 11:00:36 11:03:50 21° 295° (WNW) 11:06:59 437.485
VELOX 1 31 Jan 11:08:10 11:12:27 42° 98° (E) 11:16:43 145.980
CUBEBUG 1 31 Jan 11:10:11 11:13:25 20° 91° (E) 11:16:45 437.445
GOMX 1 31 Jan 11:13:01 11:17:10 22° 299° (WNW) 11:21:03 467.674
DOVE 4 31 Jan 11:14:15 11:18:33 26° 296° (WNW) 11:22:36 437.250
UKube-1 31 Jan 11:18:21 11:22:42 65° 287° (WNW) 11:27:00 .
HUMSAT D 31 Jan 11:22:41 11:26:57 76° 101° (ESE) 11:31:08 437.325/437.525
NANOSAT C BR1 31 Jan 11:23:20 11:27:23 40° 262° (W) 11:31:29 145.865
COMPASS 1 31 Jan 11:24:26 11:26:56 15° 298° (WNW) 11:29:18 437.405
SO-50 31 Jan 11:29:41 11:34:13 53° 313° (NW) 11:38:55 436.795
DELFI C3 31 Jan 11:30:00 11:33:35 30° 291° (WNW) 11:37:07 145.870
BRITE-PL 31 Jan 11:30:23 11:33:17 14° 305° (NW) 11:35:54 437.365/2234.400
ANTELSAT 31 Jan 11:34:45 11:38:31 23° 268° (W) 11:42:10 437.575/2403.000
PHONESAT 2.4 31 Jan 11:35:45 11:38:57 30° 184° (S) 11:42:10 2401.200-2431.200
ZACube-1 31 Jan 11:37:58 11:42:12 44° 290° (WNW) 11:46:19 437.345
QB50P2 31 Jan 11:39:30 11:43:14 28° 266° (W) 11:46:57 145.880/145.840
CUBEBUG 2 31 Jan 11:40:47 11:44:53 32° 293° (WNW) 11:48:47 437.445
TIGRISAT 31 Jan 11:41:23 11:44:56 20° 269° (W) 11:48:21 435.000
DX 1 31 Jan 11:42:11 11:46:16 37° 292° (WNW) 11:50:17 434.975-435.025
BUGSAT 1 31 Jan 11:47:32 11:51:09 28° 266° (W) 11:54:47 437.445
QB50P1 31 Jan 11:48:19 11:51:48 23° 267° (W) 11:55:15 145.935-145.965
FUNcube-1 31 Jan 11:49:17 11:53:20 35° 291° (WNW) 11:57:15 145.935
AAUSAT CUBESAT 2 31 Jan 11:50:53 11:51:14 10° 301° (WNW) 11:51:24 437.432
PCSat 31 Jan 11:51:04 11:55:25 24° 38° (NE) 11:59:50 145.827
Oscar 19 31 Jan 11:57:33 12:01:10 20° 60° (ENE) 12:04:56 437.125/150
VERMONT LUNAR 31 Jan 12:01:15 12:04:02 22° 194° (SSW) 12:06:49 437.305
BEESAT 2 31 Jan 12:04:58 12:08:11 21° 246° (WSW) 12:11:18 435.950
POLYITAN 1 31 Jan 12:05:37 12:08:25 16° 271° (W) 12:11:05 437.675
AIST 2 31 Jan 12:12:21 12:16:24 40° 241° (WSW) 12:20:21 435.215
50 SAT 31 Jan 12:13:11 12:17:00 40° 290° (WNW) 12:20:46 437.505
HO-68 31 Jan 12:13:33 12:17:58 17° 311° (NW) 12:22:06 435.675
UWE-3 31 Jan 12:16:37 12:19:44 18° 298° (WNW) 12:22:39 435.000/436.395/437.385
BEESAT 3 31 Jan 12:17:22 12:19:45 15° 248° (WSW) 12:21:59 437.485
AISAT 31 Jan 12:17:44 12:22:00 40° 291° (WNW) 12:26:11 437.250
Oscar 11 31 Jan 12:20:28 12:21:34 11° 302° (WNW) 12:22:27 145.826/435.025
ITAMSAT 1 31 Jan 12:20:40 12:22:46 13° 55° (NE) 12:25:05 435.822/435.867
AIST 1 31 Jan 12:21:26 12:25:31 44° 284° (WNW) 12:29:39
SPROUT 31 Jan 12:21:57 12:25:41 28° 94° (E) 12:29:27 437.525
GONETS M04 31 Jan 12:22:14 12:30:49 59° 75° (ENE) 12:39:23
CINEMA 3 31 Jan 12:23:40 12:24:49 11° 305° (NW) 12:25:43 145.822/145.860
POPSAT HIP 1 31 Jan 12:26:31 12:27:28 10° 275° (W) 12:28:09 437.405
ESTCUBE 1 31 Jan 12:27:49 12:32:20 67° 287° (WNW) 12:36:50 437.505/2401.250
DUCHIFAT 1 31 Jan 12:28:08 12:28:42 10° 275° (W) 12:29:01 145.980
AO-7 31 Jan 12:37:08 12:37:55 10° 31° (NNE) 12:39:04 29.400- 29.500
VELOX 1 31 Jan 12:45:13 12:48:51 24° 296° (WNW) 12:52:23 145.980
CUBEBUG 1 31 Jan 12:45:48 12:50:05 47° 289° (WNW) 12:54:21 437.445
TISAT 1 31 Jan 12:50:38 12:54:51 52° 100° (E) 12:59:03 437.305
HUMSAT D 31 Jan 13:00:10 13:02:13 13° 300° (WNW) 13:04:05 437.325/437.525
BEESAT 31 Jan 13:01:18 13:03:02 12° 86° (E) 13:05:02 436.000
ITUPSAT 1 31 Jan 13:06:18 13:08:32 13° 87° (E) 13:11:00 437.325
RS-15 31 Jan 13:12:47 13:24:01 67° 45° (NE) 13:35:48 29.354- 29.394
SO-50 31 Jan 13:13:04 13:15:53 15° 336° (NNW) 13:18:40 436.795
PHONESAT 2.4 31 Jan 13:14:27 13:16:57 18° 200° (SSW) 13:19:26 2401.200-2431.200
Gurwin Techsat 1B 31 Jan 13:28:41 13:33:17 32° 65° (ENE) 13:37:59 435.225
PCSat 31 Jan 13:34:01 13:39:29 77° 240° (WSW) 13:44:54 145.827
Oscar 19 31 Jan 13:34:55 13:40:05 67° 257° (WSW) 13:45:17 437.125/150
HORYU 2 31 Jan 13:36:48 13:38:08 11° 58° (ENE) 13:39:41 437.375
ITAMSAT 1 31 Jan 13:56:19 14:01:28 74° 74° (ENE) 14:06:42 435.822/435.867
SPROUT 31 Jan 13:57:55 14:01:50 32° 292° (WNW) 14:05:40 437.525
KKS-1 31 Jan 14:19:18 14:21:46 15° 88° (E) 14:24:23 437.445
GONETS M04 31 Jan 14:19:41 14:27:17 35° 276° (W) 14:34:44
AO-7 31 Jan 14:21:07 14:28:16 34° 55° (NE) 14:35:33 29.400- 29.500
SWISSCUBE 31 Jan 14:21:30 14:26:19 75° 103° (ESE) 14:31:07 437.505
TISAT 1 31 Jan 14:27:19 14:30:21 18° 297° (WNW) 14:33:14 437.305
BEESAT 31 Jan 14:36:50 14:41:39 86° 285° (WNW) 14:46:27 436.000
ITUPSAT 1 31 Jan 14:42:18 14:47:07 78° 286° (WNW) 14:51:55 437.325
DANDE 31 Jan 14:43:14 14:49:22 34° 63° (ENE) 14:54:08 436.750
JAS-2 31 Jan 14:46:24 14:48:21 12° 55° (NE) 14:50:32 435.910
CUSAT 1 31 Jan 14:59:20 15:05:29 50° 70° (ENE) 15:10:03 437.405
O/OREOS (USA 219) 31 Jan 15:06:46 15:07:09 10° 98° (E) 15:07:49 437.305
Gurwin Techsat 1B 31 Jan 15:08:12 15:13:12 40° 263° (W) 15:18:11 435.225
HORYU 2 31 Jan 15:09:38 15:14:09 82° 73° (ENE) 15:18:40 437.375
PCSat 31 Jan 15:19:58 15:22:07 12° 256° (WSW) 15:23:56 145.827
RS-15 31 Jan 15:25:37 15:36:08 44° 249° (WSW) 15:46:52 29.354- 29.394
M-CUBED/EXP-1 PRIME 31 Jan 15:34:02 15:35:48 14° 97° (E) 15:37:42 437.505
ITAMSAT 1 31 Jan 15:38:24 15:41:40 16° 273° (W) 15:44:43 435.822/435.867
STARS 31 Jan 15:42:24 15:46:51 66° 101° (ESE) 15:51:16 437.465
KKS-1 31 Jan 15:54:28 15:58:56 65° 287° (WNW) 16:03:22 437.445
SWISSCUBE 31 Jan 16:00:42 16:03:41 16° 300° (WNW) 16:06:30 437.505
AUBIESAT-1 31 Jan 16:04:13 16:07:08 28° 103° (ESE) 16:10:09 437.475
AO-7 31 Jan 16:12:15 16:20:36 69° 255° (WSW) 16:28:59 29.400- 29.500
BEESAT 31 Jan 16:16:37 16:18:51 13° 303° (WNW) 16:20:54 436.000
MOZHAYETS 4 31 Jan 16:17:06 16:18:24 11° 85° (E) 16:19:58
Cubesat XI-IV 31 Jan 16:22:10 16:24:42 14° 55° (NE) 16:27:28 437.490
ITUPSAT 1 31 Jan 16:22:25 16:24:18 12° 303° (WNW) 16:25:59 437.325
DANDE 31 Jan 16:26:51 16:32:57 39° 272° (W) 16:37:33 436.750
JAS-2 31 Jan 16:27:24 16:32:47 79° 74° (ENE) 16:37:59 435.910
SO-50 31 Jan 16:38:17 16:41:09 15° 25° (NNE) 16:44:08 436.795
CUTE-I 31 Jan 16:40:09 16:43:43 19° 59° (ENE) 16:47:27 437.470
O/OREOS (USA 219) 31 Jan 16:41:23 16:45:54 89° 115° (ESE) 16:50:28 437.305
CUSAT 1 31 Jan 16:43:13 16:47:52 23° 278° (W) 16:51:32 437.405
HORYU 2 31 Jan 16:49:48 16:51:31 12° 274° (W) 16:52:58 437.375
M-CUBED/EXP-1 PRIME 31 Jan 17:07:55 17:11:03 39° 294° (WNW) 17:14:16 437.505
STARS 31 Jan 17:20:06 17:22:54 16° 299° (WNW) 17:25:32 437.465
AUBIESAT-1 31 Jan 17:39:28 17:42:01 20° 298° (WNW) 17:44:32 437.475
MOZHAYETS 4 31 Jan 17:51:47 17:56:23 85° 284° (WNW) 18:00:58
Cubesat XI-IV 31 Jan 17:58:43 18:04:03 79° 74° (ENE) 18:09:26 437.490
